Regional Weather Roundup
Issued by NWS Sterling, VA

Home | Current Version | Previous Version | Text Only | Print | Product List | Glossary Off
Versions: 1 2 3 4 5 6 7 8 9 10 11 12 13 14 15 16 17 18 19 20 21 22 23 24 25 26 27

000
ASUS41 KLWX 162110
RWRLWX

REGIONAL WEATHER ROUNDUP
NATIONAL WEATHER SERVICE BALTIMORE MD/WASHINGTON DC
500 PM EDT WED APR 16 2014

Note: "FAIR" indicates few or no clouds below 12,000 feet
with no significant weather and/or obstructions to visibility.
 TC=TEMPERATURE CELSIUS

 * =Non NWS site. Station does not report precipitation (e.g. rain,
    snow, etc.), thunder, or fog.

DCZ001-MDZ009-015-VAZ040>042-051-053>054-162200-
WASHINGTON METRO

CITY           SKY/WX    TMP DP  RH WIND       PRES   REMARKS
WASHINGTON NAT MOSUNNY   51  18  27 NE9       30.43F
DULLES         MOSUNNY   48  17  29 N8G17     30.43S
ANDREWS AFB    SUNNY     48  17  29 N13G21    30.41S
FT BELVOIR     SUNNY     50  12  21 VRB5      30.43F
QUANTICO       SUNNY     50  18  28 E14       30.43F
COLLEGE PARK*  SUNNY     50  16  25 N9G18     30.43S
LEESBURG*      SUNNY     46  21  36 N8        30.44S
MANASSAS*      SUNNY     48  19  32 N14       30.43S
GAITHERSBURG*  SUNNY     46  18  31 NW8       30.45S

$$

MDZ006>007-011-014-162200-
BALTIMORE METRO

CITY           SKY/WX    TMP DP  RH WIND       PRES   REMARKS
BWI AIRPORT    MOSUNNY   49  17  28 NE13      30.42S
MD SCIENCE CTR   N/A     48  17  29 MISG      30.43F
MARTIN STATE   SUNNY    N/A N/A N/A N6        30.45F
ANNAPOLIS      SUNNY     47  21  35 N10       30.43S
FORT MEADE*    SUNNY     46  16  29 NE6       30.45S

$$

MDZ012-015-019>023-162200-
MARYLAND EASTERN SHORE

CITY           SKY/WX    TMP DP  RH WIND       PRES   REMARKS
OCEAN CITY     SUNNY     47  32  56 MISG      30.41R
SALISBURY      SUNNY     51  24  34 N9        30.40R
BAY BRIDGE AP* SUNNY     46  19  34 N10G17    30.44S
CAMBRIDGE*     SUNNY     50  21  32 N10       30.41S
EASTON*        SUNNY     48  21  34 N14G20    30.46S

$$

MDZ017>025-162200-
SOUTHERN MARYLAND

CITY           SKY/WX    TMP DP  RH WIND       PRES   REMARKS
PATUXENT RIVER MOSUNNY   46  18  32 N17       30.42S
ST INIGOES     SUNNY     47  20  34 NE10G21   30.42S
LEONARDTOWN*   NOT AVBL

$$

MDZ003>005-162200-
NORTH CENTRAL MARYLAND

CITY           SKY/WX    TMP DP  RH WIND       PRES   REMARKS
FREDERICK*     SUNNY     46  21  36 NE12      30.46
HAGERSTOWN APT SUNNY     45  14  28 N13G18    30.42F
WESTMINSTER*   SUNNY     45  12  26 N12G20    30.42S

$$

MDZ501>502-162200-
WESTERN MARYLAND

CITY           SKY/WX    TMP DP  RH WIND       PRES   REMARKS
OAKLAND*       SUNNY     37  -8  14 NE3       30.32F
CUMBERLAND*    SUNNY     50  14  23 N6        30.44F

$$

VAZ025>031-162200-
SHENANDOAH VALLEY

CITY           SKY/WX    TMP DP  RH WIND       PRES   REMARKS
WINCHESTER*    SUNNY     46  14  27 NE6       30.41S
STAUNTON*      SUNNY     48  17  30 NW3       30.39S

$$

WVZ021-048>050-054>055-162200-
EASTERN WEST VIRGINIA PANHANDLE

CITY           SKY/WX    TMP DP  RH WIND       PRES   REMARKS
MARTINSBURG    SUNNY     48  13  24 NE10      30.43F
PETERSBURG*    SUNNY     52  24  32 SW6       30.40S

$$

VAZ036>039-050-162200-
CENTRAL FOOTHILLS

CITY           SKY/WX    TMP DP  RH WIND       PRES   REMARKS
CHARLOTTESVILL SUNNY     49  14  24 MISG      30.39S
CULPEPER*      SUNNY     52  12  20 N8G16     30.43S

$$

VAZ055>057-162200-
NORTH AND CENTRAL PIEDMONT

CITY           SKY/WX    TMP DP  RH WIND       PRES   REMARKS
FREDERICKSBRG* SUNNY     52  19  28 NE9       30.42R
STAFFORD*      SUNNY     51  19  28 N5        30.46S

$$

NCZ024-NYZ072-PAZ021-071-VAZ022-071-162200-
OTHER REGIONAL OBSERVATIONS

CITY           SKY/WX    TMP DP  RH WIND       PRES   REMARKS
NEW YORK CITY  SUNNY     48  17  29 VRB3      30.44R
PHILADELPHIA   SUNNY     48  16  27 N17       30.44S
PITTSBURGH     MOSUNNY   42  13  30 VRB5      30.40F
ROANOKE        SUNNY     52  21  29 CALM      30.36F
RICHMOND       SUNNY     53  17  24 NE10      30.39F
RALEIGH        SUNNY     54  25  32 N8        30.35F

$$

ANZ530>537-162200-
MARINE OBSERVATIONS

STATION/POSITION TIME  TEMP    WIND        PRES
                       AIR SEA DIR/SP/G
                 (UTC) (F)     (DEG/KT/KT) (MB)
THOMAS PT LIGHT  2100   44 53   30/ 15/ 16 1030.8F
BALT KEY BRIDGE  2100   45     350/ 12/ 14 1030.5S
COVE POINT       2100   43      30/ 16/ 21 1030.1S
LEWISETTA        2100   46 51   50/  8/ 15 1029.9R
SOLOMONS ISLAND  2100      53                N/A
PINEY POINT      2100           30/ 11/ 13   N/A

$$




USA.gov is the U.S. government's official web portal to all federal, state and local government web resources and services.